FENGYUN 1C DEB, 32195

Orbit data source: Space-Track

FENGYUN 1C DEB, 32195 is space debris in SSO originally from a launch on Mon, 10 May 1999 UTC launched from the Taiyaun Space Center, China (TSC). Fengyun 1C debris stems from the Chinese weather satellite Fengyun-1C, which was intentionally destroyed by a Chinese anti-satellite missile in 2007. This event dramatically increased the amount of space debris, with thousands of trackable fragments posing hazards to satellites and human spaceflight. The Fengyun 1C debris cloud has become a focal point in discussions about space sustainability and the need for international regulations to prevent the creation of new debris.

Loading next visibility...
Identifier
32195, 1999-025CUR
Orbit
SSO
Country
Flag of CNCN / PRC
Related business
Manufacturer
Unknown
Mission
Spacecraft
Bus & Motor
Unknown
Mass
Unknown
Launch date (UTC)
1999-05-10 (27 years ago)
Launch vehicle
Unknown
Launch site
Taiyaun Space Center, China (TSC)
Object type
Payload
Rocket body
Debris
Shape & HBR
Unknown shape, 0.1 m
Radar Cross Section
Small (<0.1 m²)

Expand to show TLE details & history
Last TLE update: 2 days ago

TLE from 2 days ago
0 FENGYUN 1C DEB
1 32195U 99025CUR 26164.28665168  .00000756  00000-0  45233-3 0  9994
2 32195  98.7768 166.8438 0069848 143.5473 217.0482 14.08787526665521
Epoch: 2026-06-13T06:52Z
TLE epoch observation values (Epoch: 2026-06-13T06:52:46.705Z)
Latitude
-0.00001°
Longitude
162.04528°
Altitude
906.927 km
Speed
7.378 km/s
True Right ascension
11h 07m 22s
True Declination
0° 00' 00"
Sunlit
Object was in daylight at epoch
Visualization orbit readout
Latitude
Unknown
Longitude
Unknown
Altitude
Unknown
Speed
Unknown
Apparent Right ascension
Unknown
Apparent Declination
Unknown
Sunlit
N/A
Visualization observer readout
Local Sidereal Time
01:16:25
Azimuth
Unknown
Elevation
Unknown
Doppler factor
Unknown
Orbital elements
Apogee altitude
911.262 km
Perigee altitude
810.139 km
Semi-major axis
7,238.837 km
Eccentricity
0.00698
Inclination
98.7768°
RAAN
166.8438°
Arg. of periapsis
143.5473°
True anomaly
216.56931°
Mean anomaly
217.0482°
Eccentric anomaly
216.80842°
Mean motion
3.52403 °/min
Orbital period
102.16 mins
BSTAR
0.00045233
Loading maneuver chart data...
Computing Atmospheric mass density...

Documentation

Showing up to 5 results
|